Location: Wald
(31.7579°N, 86.6655°W)
Time: 21:06:58
(UTC+00:00)

Meteor 2-9 Rocket - Pass Details

Date: 14 July 2020
Orbit: 792 x 894 km, 81.3° (Epoch: 13 August)

Event Time Altitude Azimuth Distance (km) Brightness Sun altitude
Exits shadow 09:36:51 19° 209° (SSW) 1,831 5.4 -14.4°
Maximum altitude 09:40:34 52° 280° (W) 979 4.3 -13.7°
Drops below altitude 10° 09:45:46 10° 357° (N) 2,370 7.0 -12.8°
Sets 09:48:13 0° 2° (N) 3,311 7.9 -12.4°
